Location: Unspecified
(38.0989°N, 0.6729°W)
Time: 14:53:47
(UTC+02:00)

Amateur Radio Satellites - All Passes

Search period start: 20 September 2017 14:23
Search period end: 21 September 2017 14:23
Location: Unspecified, 38.0989°N, 0.6729°W

Satellite Date Start Highest point End Downlink Frequencies (MHz)
Time Altitude Azimuth
AO-7 20 Sep 14:25:05 14:28:23 13° 47° (NE) 14:31:41 .
ESTCUBE 1 20 Sep 14:43:09 14:46:16 19° 293° (WNW) 14:49:23 437.505/2401.250
50 SAT 20 Sep 14:44:04 14:46:44 22° 96° (E) 14:49:25 437.505
Oscar 19 20 Sep 14:51:44 14:56:56 84° 256° (WSW) 15:02:10 437.125/150
RS-15 20 Sep 14:56:58 15:07:51 37° 40° (NE) 15:18:11 29.354- 29.394
DX 1 20 Sep 15:14:11 15:18:20 44° 100° (E) 15:22:28 434.975-435.025
UKube-1 20 Sep 15:15:57 15:19:42 29° 97° (E) 15:23:26 .
VELOX 1 20 Sep 15:29:01 15:32:50 30° 290° (WNW) 15:36:39 145.980
NO-84 20 Sep 15:39:54 15:43:44 75° 316° (NW) 15:47:15 435.350 FM
Gurwin Techsat 1B 20 Sep 15:44:43 15:49:40 40° 261° (W) 15:54:40 435.225
ITAMSAT 1 20 Sep 15:49:25 15:53:20 22° 65° (ENE) 15:57:16 435.822/435.867
O/OREOS (USA 219) 20 Sep 15:57:03 15:59:02 13° 262° (W) 16:01:00 437.305
YUBILEINY 20 Sep 15:58:18 16:05:01 24° 292° (WNW) 16:11:47 435.215
SO-50 20 Sep 16:00:23 16:04:45 53° 117° (ESE) 16:09:08 436.795
SPROUT 20 Sep 16:01:37 16:02:07 10° 297° (WNW) 16:02:36 437.525
AO-7 20 Sep 16:11:19 16:19:29 62° 67° (ENE) 16:27:39 .
BEESAT 20 Sep 16:13:00 16:15:38 15° 92° (E) 16:18:15 436.000
50 SAT 20 Sep 16:17:00 16:19:03 16° 291° (WNW) 16:21:06 437.505
DX 1 20 Sep 16:51:35 16:54:07 15° 295° (WNW) 16:56:39 434.975-435.025
UKube-1 20 Sep 16:52:12 16:55:33 22° 292° (WNW) 16:58:52 .
PCSat 20 Sep 16:52:50 16:58:15 86° 116° (ESE) 17:03:43 145.827
RS-15 20 Sep 17:09:32 17:21:22 73° 245° (WSW) 17:32:32 29.354- 29.394
ITUPSAT 1 20 Sep 17:09:35 17:14:21 58° 101° (ESE) 17:19:04 437.325
MOZHAYETS 4 20 Sep 17:17:21 17:22:00 74° 101° (E) 17:26:37
NO-84 20 Sep 17:20:08 17:21:34 12° 331° (NNW) 17:22:57 435.350 FM
ITAMSAT 1 20 Sep 17:27:38 17:32:30 41° 261° (W) 17:37:23 435.822/435.867
CUBESAT XI-V 20 Sep 17:34:04 17:37:38 22° 94° (E) 17:41:10 437.345
DOVE 4 20 Sep 17:36:28 17:39:39 19° 68° (ENE) 17:42:43 437.250
SO-50 20 Sep 17:42:25 17:45:30 18° 314° (NW) 17:48:36 436.795
BEESAT 20 Sep 17:49:01 17:53:41 53° 288° (WNW) 17:58:20 436.000
AO-7 20 Sep 18:05:52 18:12:38 27° 264° (W) 18:19:28 .
KKS-1 20 Sep 18:06:51 18:09:32 16° 93° (E) 18:12:14 437.445
XW-2D 20 Sep 18:30:52 18:33:33 18° 69° (ENE) 18:36:16 145.860 - 145.880
PCSat 20 Sep 18:39:17 18:42:22 15° 315° (NW) 18:45:28 145.827
STARS 20 Sep 18:42:12 18:44:47 15° 93° (E) 18:47:22 437.465
XW-2B 20 Sep 18:42:36 18:45:43 24° 70° (ENE) 18:48:52 145.730 - 145.750
XW-2F 20 Sep 18:45:40 18:48:50 25° 71° (ENE) 18:52:01 145.980 - 146.000
CUTE-I 20 Sep 18:48:26 18:53:05 32° 68° (ENE) 18:57:45 437.470
ITUPSAT 1 20 Sep 18:48:58 18:51:38 15° 297° (WNW) 18:54:19 437.325
MOZHAYETS 4 20 Sep 18:57:13 18:58:30 11° 298° (WNW) 18:59:47
XW-2C 20 Sep 19:03:05 19:06:45 44° 74° (ENE) 19:10:26 145.795 - 145.815
LilacSat-2 20 Sep 19:10:36 19:14:24 61° 76° (ENE) 19:18:14 437.200
CUBESAT XI-V 20 Sep 19:10:52 19:15:02 33° 289° (WNW) 19:19:09 437.345
DOVE 4 20 Sep 19:12:55 19:17:07 35° 262° (W) 19:21:07 437.250
NUDT-PHONESAT 20 Sep 19:21:10 19:24:49 53° 75° (ENE) 19:28:30 437.300
RS-15 20 Sep 19:26:19 19:31:25 14° 265° (W) 19:36:26 29.354- 29.394
SEEDS 20 Sep 19:30:50 19:32:07 11° 64° (ENE) 19:33:24 437.485
HO-68 20 Sep 19:32:44 19:39:10 38° 65° (ENE) 19:45:38 435.675
CUBEBUG 2 20 Sep 19:40:50 19:42:44 13° 64° (ENE) 19:44:41 437.445
KKS-1 20 Sep 19:42:04 19:46:15 42° 288° (WNW) 19:50:27 437.445
KAITUO 1B 20 Sep 19:43:25 19:47:11 73° 259° (WSW) 19:51:00 145.475/437.950
CUTE 1.7 + AOD 2 20 Sep 19:48:42 19:52:25 29° 71° (ENE) 19:56:09 437.475
UWE-3 20 Sep 19:56:31 19:57:41 11° 63° (ENE) 19:58:52 435.000/436.395/437.385
XW-2D 20 Sep 20:04:14 20:07:31 27° 264° (W) 20:10:51 145.860 - 145.880
AAUSAT CUBESAT 2 20 Sep 20:04:47 20:06:16 12° 65° (ENE) 20:07:45 437.432
XW-2B 20 Sep 20:16:55 20:19:49 20° 265° (W) 20:22:45 145.730 - 145.750
STARS 20 Sep 20:17:08 20:21:18 43° 288° (WNW) 20:25:28 437.465
XW-2F 20 Sep 20:20:05 20:22:54 20° 266° (W) 20:25:44 145.980 - 146.000
CUTE-I 20 Sep 20:28:29 20:33:04 29° 264° (W) 20:37:40 437.470
XW-2A 20 Sep 20:34:31 20:37:41 37° 73° (ENE) 20:40:52 145.665 - 145.685
XW-2C 20 Sep 20:40:02 20:41:09 11° 269° (W) 20:42:15 145.795 - 145.815
STRAND 1 20 Sep 20:47:09 20:51:33 28° 96° (E) 20:55:56 437.568
AO-73 20 Sep 20:49:47 20:53:01 21° 68° (ENE) 20:56:18 145.935
ZACube-1 20 Sep 20:50:05 20:53:31 24° 69° (ENE) 20:57:00 437.345
Oscar 11 20 Sep 20:53:49 20:56:36 17° 67° (ENE) 20:59:23 .
SEEDS 20 Sep 21:03:03 21:07:15 60° 260° (W) 21:11:27 437.485
CUBEBUG 2 20 Sep 21:14:48 21:18:51 51° 261° (W) 21:23:04 437.445
HO-68 20 Sep 21:20:14 21:26:48 39° 262° (W) 21:33:25 435.675
CUTE 1.7 + AOD 2 20 Sep 21:24:57 21:28:14 21° 266° (W) 21:31:31 437.475
AO-85 20 Sep 21:29:11 21:30:58 13° 109° (ESE) 21:32:45 145.980
UWE-3 20 Sep 21:29:20 21:33:31 63° 260° (W) 21:37:51 435.000/436.395/437.385
AAUSAT CUBESAT 2 20 Sep 21:37:07 21:41:13 55° 260° (W) 21:45:19 437.432
BEESAT 3 20 Sep 21:39:09 21:43:04 57° 117° (ESE) 21:47:02 437.485
BEESAT 2 20 Sep 21:39:24 21:41:53 16° 110° (ESE) 21:44:24 435.950
Tancredo 1 20 Sep 21:57:35 22:00:17 80° 321° (NW) 22:03:00 437.200
DELFI C3 20 Sep 22:05:38 22:08:40 21° 69° (ENE) 22:11:42 145.870
NO-84 20 Sep 22:15:20 22:17:50 24° 37° (NE) 22:20:15 435.350 FM
Max Valier Satellite 20 Sep 22:20:58 22:23:53 22° 70° (ENE) 22:26:49 145.860
ISS 20 Sep 22:24:51 22:27:30 23° 132° (SE) 22:30:10 437.550
AO-73 20 Sep 22:25:14 22:29:01 31° 264° (W) 22:32:55 145.935
ZACube-1 20 Sep 22:26:01 22:29:39 27° 265° (W) 22:33:22 437.345
STRAND 1 20 Sep 22:26:10 22:30:40 32° 291° (WNW) 22:35:11 437.568
Oscar 11 20 Sep 22:28:17 22:32:23 40° 262° (W) 22:36:30 .
JUGNU 20 Sep 22:41:13 22:43:24 12° 176° (S) 22:45:33 437.505
FO-29 20 Sep 22:58:11 23:03:33 56° 102° (ESE) 23:09:27 435.910
AO-85 20 Sep 23:07:11 23:10:55 43° 305° (NW) 23:14:41 145.980
nSIGHT-1 20 Sep 23:10:32 23:13:45 86° 151° (SSE) 23:17:01 .
BEESAT 2 20 Sep 23:15:30 23:19:17 39° 306° (NW) 23:23:07 435.950
BEESAT 3 20 Sep 23:18:46 23:20:58 14° 314° (NW) 23:23:12 437.485
EO-88 20 Sep 23:29:03 23:32:39 59° 259° (W) 23:36:18 145.990 - 145.960
UNISAT 6 20 Sep 23:33:37 23:38:06 45° 99° (E) 23:42:35 437.425
Tancredo 1 20 Sep 23:34:23 23:35:16 11° 338° (NNW) 23:36:09 437.200
DELFI C3 20 Sep 23:39:59 23:43:16 25° 264° (W) 23:46:33 145.870
NO-84 20 Sep 23:52:57 23:55:02 18° 234° (SW) 23:57:05 435.350 FM
Max Valier Satellite 20 Sep 23:54:48 23:57:37 20° 265° (W) 00:00:27 145.860
TIGRISAT 20 Sep 23:58:14 00:02:55 77° 103° (ESE) 00:07:36 435.000
ISS 21 Sep 00:00:50 00:03:51 33° 328° (NNW) 00:06:53 437.550
PRISM 21 Sep 00:02:01 00:05:55 44° 100° (E) 00:09:47 437.425
ESTCUBE 1 21 Sep 00:03:25 00:07:20 29° 70° (ENE) 00:11:15 437.505/2401.250
YUBILEINY 21 Sep 00:11:40 00:19:07 30° 71° (ENE) 00:26:33 435.215
JUGNU 21 Sep 00:29:49 00:31:29 11° 187° (S) 00:33:09 437.505
SO-50 21 Sep 00:33:07 00:37:14 31° 51° (NE) 00:41:21 436.795
AIST 2D 21 Sep 00:36:06 00:38:47 20° 95° (E) 00:41:27 435.315
LO-87 21 Sep 00:37:03 00:40:33 70° 259° (WSW) 00:44:05 145.935 - 145.965
FO-29 21 Sep 00:44:42 00:48:17 18° 295° (WNW) 00:52:06 435.910
nSIGHT-1 21 Sep 00:48:25 00:50:28 16° 337° (NNW) 00:52:32 .
VELOX 1 21 Sep 00:49:14 00:52:01 17° 66° (ENE) 00:54:49 145.980
DUCHIFAT 1 21 Sep 00:58:59 01:00:35 12° 91° (E) 01:02:11 145.980
POLYITAN 1 21 Sep 01:06:00 01:09:06 19° 94° (E) 01:12:12 437.675
EO-79 21 Sep 01:11:07 01:14:28 22° 95° (E) 01:17:47 145.935-145.965
UNISAT 6 21 Sep 01:11:21 01:14:26 18° 294° (WNW) 01:17:31 437.425
SPROUT 21 Sep 01:14:00 01:17:57 40° 72° (ENE) 01:21:55 437.525
QB50P2 21 Sep 01:23:00 01:26:53 33° 97° (E) 01:30:46 145.880/145.840
TIGRISAT 21 Sep 01:37:50 01:38:55 11° 297° (WNW) 01:40:00 435.000
PRISM 21 Sep 01:38:47 01:40:46 13° 295° (WNW) 01:42:45 437.425
ESTCUBE 1 21 Sep 01:40:25 01:44:05 24° 265° (W) 01:47:47 437.505/2401.250
ISS 21 Sep 01:40:47 01:41:07 10° 346° (NNW) 01:41:28 437.550
PCSat 21 Sep 01:42:27 01:47:42 47° 58° (ENE) 01:52:54 145.827
SRMSAT 21 Sep 01:47:23 01:49:42 12° 177° (S) 01:52:01 437.500
BUGSAT 1 21 Sep 01:48:44 01:49:50 11° 91° (E) 01:50:56 437.445
NANOSAT C BR1 21 Sep 02:01:48 02:06:05 78° 101° (ESE) 02:10:21 145.865
M-CUBED/EXP-1 PRIME 21 Sep 02:02:42 02:04:52 16° 99° (E) 02:07:00 437.505
YUBILEINY 21 Sep 02:07:51 02:16:15 55° 270° (W) 02:24:42 435.215
DX 1 21 Sep 02:08:03 02:11:53 31° 70° (ENE) 02:15:43 434.975-435.025
UKube-1 21 Sep 02:09:07 02:12:20 21° 67° (ENE) 02:15:32 .
AIST 2D 21 Sep 02:09:13 02:11:51 20° 290° (WNW) 02:14:27 435.315
SO-50 21 Sep 02:13:41 02:17:35 28° 247° (WSW) 02:21:31 436.795
VELOX 1 21 Sep 02:23:56 02:28:06 42° 261° (W) 02:32:18 145.980
DUCHIFAT 1 21 Sep 02:32:22 02:36:30 52° 286° (WNW) 02:40:38 145.980
POLYITAN 1 21 Sep 02:41:04 02:44:54 32° 289° (WNW) 02:48:44 437.675
50 SAT 21 Sep 02:43:43 02:47:00 64° 259° (WSW) 02:50:18 437.505
EO-79 21 Sep 02:46:31 02:50:11 28° 290° (WNW) 02:53:50 145.935-145.965
SPROUT 21 Sep 02:51:31 02:53:59 15° 267° (W) 02:56:29 437.525
QB50P2 21 Sep 02:59:22 03:02:26 19° 292° (WNW) 03:05:28 145.880/145.840
Oscar 19 21 Sep 03:05:13 03:10:03 38° 98° (E) 03:14:49 437.125/150
BEESAT 21 Sep 03:18:09 03:20:50 15° 63° (ENE) 03:23:31 436.000
BUGSAT 1 21 Sep 03:21:22 03:25:28 55° 286° (WNW) 03:29:36 437.445
PCSat 21 Sep 03:26:41 03:30:42 22° 254° (WSW) 03:34:44 145.827
SRMSAT 21 Sep 03:36:32 03:37:58 11° 188° (S) 03:39:24 437.500
M-CUBED/EXP-1 PRIME 21 Sep 03:36:41 03:39:18 21° 295° (WNW) 03:41:51 437.505
UKube-1 21 Sep 03:44:18 03:48:07 31° 262° (W) 03:51:59 .
DX 1 21 Sep 03:44:49 03:48:04 20° 265° (W) 03:51:20 434.975-435.025
Gurwin Techsat 1B 21 Sep 04:02:07 04:07:27 89° 283° (WNW) 04:12:46 435.225
nSIGHT-1 21 Sep 04:04:09 04:05:32 12° 18° (NNE) 04:06:55 .
ITUPSAT 1 21 Sep 04:14:27 04:19:06 55° 73° (ENE) 04:23:47 437.325
AO-7 21 Sep 04:16:14 04:22:03 21° 93° (E) 04:27:51 .
MOZHAYETS 4 21 Sep 04:17:12 04:21:42 56° 73° (ENE) 04:26:14
Tancredo 1 21 Sep 04:19:11 04:21:50 45° 36° (NE) 04:24:27 437.200
O/OREOS (USA 219) 21 Sep 04:26:01 04:30:31 89° 296° (WNW) 04:35:04 437.305
CUBESAT XI-V 21 Sep 04:36:01 04:39:17 19° 66° (ENE) 04:42:33 437.345
Oscar 19 21 Sep 04:45:03 04:49:06 24° 294° (WNW) 04:53:08 437.125/150
BEESAT 21 Sep 04:53:27 04:58:06 55° 259° (W) 05:02:49 436.000
ISS 21 Sep 04:53:47 04:56:23 21° 27° (NNE) 04:59:00 437.550
KKS-1 21 Sep 05:04:17 05:06:15 13° 64° (ENE) 05:08:13 437.445
RS-15 21 Sep 05:21:16 05:29:34 22° 99° (E) 05:37:53 29.354- 29.394
STARS 21 Sep 05:38:27 05:40:02 12° 63° (ENE) 05:41:36 437.465
nSIGHT-1 21 Sep 05:39:16 05:42:28 53° 36° (NE) 05:45:40 .
ITAMSAT 1 21 Sep 05:41:37 05:46:51 78° 103° (ESE) 05:52:03 435.822/435.867
Gurwin Techsat 1B 21 Sep 05:45:07 05:46:34 11° 301° (WNW) 05:48:01 435.225
ITUPSAT 1 21 Sep 05:54:48 05:57:14 14° 268° (W) 05:59:40 437.325
Tancredo 1 21 Sep 05:55:18 05:56:04 11° 231° (SW) 05:56:50 437.200
MOZHAYETS 4 21 Sep 05:57:09 05:59:11 13° 269° (W) 06:01:13
BEESAT 3 21 Sep 05:57:51 06:00:55 21° 49° (NE) 06:03:55 437.485
AO-85 21 Sep 06:00:36 06:02:08 12° 43° (NE) 06:03:42 145.980
AO-7 21 Sep 06:07:13 06:15:31 77° 291° (WNW) 06:23:46 .
CUBESAT XI-V 21 Sep 06:11:51 06:16:18 41° 261° (W) 06:20:46 437.345
ISS 21 Sep 06:29:51 06:33:02 47° 223° (SW) 06:36:12 437.550
KKS-1 21 Sep 06:37:56 06:42:17 57° 259° (W) 06:46:39 437.445
CUTE-I 21 Sep 07:08:19 07:11:02 14° 91° (E) 07:13:45 437.470
STARS 21 Sep 07:11:31 07:15:49 61° 259° (W) 07:20:08 437.465
DOVE 4 21 Sep 07:12:19 07:16:30 63° 101° (E) 07:20:51 437.250
nSIGHT-1 21 Sep 07:16:44 07:18:28 14° 231° (SW) 07:20:12 .
KAITUO 1B 21 Sep 07:17:59 07:19:26 12° 92° (E) 07:20:53 145.475/437.950
ITAMSAT 1 21 Sep 07:23:23 07:25:37 13° 299° (WNW) 07:27:50 435.822/435.867
RS-15 21 Sep 07:28:03 07:40:19 88° 119° (ESE) 07:52:44 29.354- 29.394
BEESAT 2 21 Sep 07:34:14 07:38:17 68° 58° (ENE) 07:42:14 435.950
BEESAT 3 21 Sep 07:34:58 07:38:31 32° 246° (WSW) 07:42:00 437.485
XW-2D 21 Sep 07:37:53 07:41:19 31° 97° (E) 07:44:42 145.860 - 145.880
AO-85 21 Sep 07:38:35 07:43:05 86° 59° (ENE) 07:47:57 145.980
XW-2B 21 Sep 07:49:57 07:53:36 43° 99° (E) 07:57:13 145.730 - 145.750
XW-2F 21 Sep 07:52:34 07:56:14 44° 99° (E) 07:59:50 145.980 - 146.000
STRAND 1 21 Sep 08:01:23 08:05:56 34° 69° (ENE) 08:10:29 437.568
AO-7 21 Sep 08:02:16 08:06:57 17° 309° (NW) 08:11:37 .
XW-2C 21 Sep 08:10:59 08:14:49 86° 100° (E) 08:18:37 145.795 - 145.815
LilacSat-2 21 Sep 08:19:26 08:23:16 68° 283° (WNW) 08:27:02 437.200
NUDT-PHONESAT 21 Sep 08:26:29 08:30:15 85° 282° (WNW) 08:33:57 437.300
CUTE-I 21 Sep 08:46:13 08:51:30 66° 286° (WNW) 08:56:46 437.470
SEEDS 21 Sep 08:48:53 08:52:17 24° 95° (E) 08:55:39 437.485
HO-68 21 Sep 08:49:01 08:55:53 46° 100° (E) 09:02:42 435.675
KAITUO 1B 21 Sep 08:50:05 08:53:35 38° 287° (WNW) 08:57:04 145.475/437.950
DOVE 4 21 Sep 08:53:00 08:53:42 10° 295° (WNW) 08:54:25 437.250
CUBEBUG 2 21 Sep 09:06:39 09:11:01 37° 97° (E) 09:15:24 437.445
CUTE 1.7 + AOD 2 21 Sep 09:10:07 09:14:22 74° 101° (E) 09:18:33 437.475
FO-29 21 Sep 09:10:56 09:14:51 19° 65° (ENE) 09:18:34 435.910
XW-2D 21 Sep 09:12:50 09:15:13 16° 292° (WNW) 09:17:33 145.860 - 145.880
UWE-3 21 Sep 09:20:25 09:24:31 30° 96° (E) 09:28:38 435.000/436.395/437.385
AAUSAT CUBESAT 2 21 Sep 09:21:09 09:24:31 24° 95° (E) 09:27:51 437.432
XW-2B 21 Sep 09:25:50 09:27:21 12° 294° (WNW) 09:28:52 145.730 - 145.750
XW-2F 21 Sep 09:28:32 09:29:54 12° 294° (WNW) 09:31:15 145.980 - 146.000
XW-2A 21 Sep 09:29:58 09:33:20 51° 100° (E) 09:36:39 145.665 - 145.685
STRAND 1 21 Sep 09:40:55 09:45:06 26° 265° (W) 09:49:19 437.568
RS-15 21 Sep 09:43:57 09:54:33 32° 324° (NW) 10:05:10 29.354- 29.394
AO-73 21 Sep 10:13:55 10:18:26 55° 100° (E) 10:22:53 145.935
ZACube-1 21 Sep 10:14:47 10:19:22 65° 101° (E) 10:23:54 437.345
Oscar 11 21 Sep 10:16:53 10:20:58 39° 98° (E) 10:25:01 .
SEEDS 21 Sep 10:24:27 10:27:52 25° 290° (WNW) 10:31:16 437.485
UNISAT 6 21 Sep 10:31:03 10:34:48 30° 70° (ENE) 10:38:39 437.425
HO-68 21 Sep 10:37:07 10:43:21 33° 296° (WNW) 10:49:34 435.675
CUBEBUG 2 21 Sep 10:43:51 10:47:21 21° 292° (WNW) 10:50:52 437.445
PRISM 21 Sep 10:49:44 10:53:09 26° 69° (ENE) 10:56:32 437.425
FO-29 21 Sep 10:53:50 10:59:39 53° 259° (W) 11:04:56 435.910
TIGRISAT 21 Sep 10:55:09 10:59:18 51° 74° (ENE) 11:03:35 435.000
AAUSAT CUBESAT 2 21 Sep 10:56:33 10:59:52 24° 290° (WNW) 11:03:09 437.432
UWE-3 21 Sep 10:57:01 11:00:48 25° 291° (WNW) 11:04:36 435.000/436.395/437.385
EO-88 21 Sep 11:00:51 11:02:28 12° 92° (E) 11:04:05 145.990 - 145.960
DELFI C3 21 Sep 11:17:39 11:21:22 41° 99° (E) 11:25:03 145.870
Max Valier Satellite 21 Sep 11:25:17 11:28:47 37° 98° (E) 11:32:15 145.860
AO-73 21 Sep 11:51:46 11:54:08 14° 295° (WNW) 11:56:29 145.935
ZACube-1 21 Sep 11:53:11 11:55:03 12° 296° (WNW) 11:56:55 437.345
Oscar 11 21 Sep 11:53:58 11:56:45 17° 293° (WNW) 11:59:32 .
POLYITAN 1 21 Sep 11:58:21 12:00:02 12° 64° (ENE) 12:01:43 437.675
EO-79 21 Sep 12:03:01 12:05:09 14° 65° (ENE) 12:07:18 145.935-145.965
RS-15 21 Sep 12:05:12 12:12:47 18° 359° (N) 12:20:13 29.354- 29.394
UNISAT 6 21 Sep 12:08:15 12:11:32 21° 266° (W) 12:14:51 437.425
QB50P2 21 Sep 12:14:24 12:17:31 21° 68° (ENE) 12:20:40 145.880/145.840
PRISM 21 Sep 12:25:06 12:28:20 22° 264° (W) 12:31:35 437.425
EO-88 21 Sep 12:32:53 12:36:14 35° 287° (WNW) 12:39:34 145.990 - 145.960
TIGRISAT 21 Sep 12:34:36 12:36:19 12° 269° (W) 12:38:03 435.000
AIST 2D 21 Sep 12:40:28 12:44:00 76° 259° (W) 12:47:34 435.315
M-CUBED/EXP-1 PRIME 21 Sep 12:45:52 12:49:18 23° 65° (ENE) 12:52:34 437.505
NANOSAT C BR1 21 Sep 12:51:57 12:55:54 44° 73° (ENE) 12:59:54 145.865
DELFI C3 21 Sep 12:53:51 12:55:43 13° 294° (WNW) 12:57:36 145.870
O/OREOS (USA 219) 21 Sep 13:00:04 13:02:23 14° 55° (NE) 13:04:43 437.305
Max Valier Satellite 21 Sep 13:00:24 13:02:14 13° 293° (WNW) 13:04:04 145.860
YUBILEINY 21 Sep 13:10:40 13:18:21 37° 86° (E) 13:26:01 435.215
DUCHIFAT 1 21 Sep 13:21:51 13:26:00 88° 77° (ENE) 13:30:13 145.980
POLYITAN 1 21 Sep 13:31:11 13:35:17 54° 260° (W) 13:39:27 437.675
ESTCUBE 1 21 Sep 13:33:19 13:37:50 80° 101° (ESE) 13:42:19 437.505/2401.250
EO-79 21 Sep 13:36:27 13:40:29 46° 261° (W) 13:44:33 145.935-145.965
LO-87 21 Sep 13:38:38 13:42:04 43° 286° (WNW) 13:45:30 145.935 - 145.965
Gurwin Techsat 1B 21 Sep 13:44:30 13:47:28 15° 62° (ENE) 13:50:26 435.225
QB50P2 21 Sep 13:49:25 13:53:05 30° 263° (W) 13:56:50 145.880/145.840
BUGSAT 1 21 Sep 14:08:56 14:12:55 78° 76° (ENE) 14:16:58 437.445
VELOX 1 21 Sep 14:15:16 14:19:22 38° 99° (E) 14:23:27 145.980
